SQP141 UKBB-UKLL

Flight info

Callsign SQP141
Flight time 0h 51m
Altitude 32000
Route KAFEL P27 GORKU
Aircraft B738/M-SDE2E3FGHIRWXY/LB1

Departure

Time 2026-04-24 07:50
Airport Boryspil International Airport (UKBB)

Arrival

Time 2026-04-24 08:41
Airport Lviv International Airport (UKLL)
Time Latitude Longitude Altitude Speed Heading
2026-04-24 07:20 50.35119 30.90131 411 ft 0 kts 93°
2026-04-24 07:22 50.35119 30.90134 411 ft 0 kts 93°
2026-04-24 07:39 50.35120 30.90127 414 ft 4 kts 92°
2026-04-24 07:40 50.35119 30.90085 409 ft 4 kts 83°
2026-04-24 07:40 50.35114 30.90044 405 ft 4 kts 66°
2026-04-24 07:40 50.35100 30.90014 404 ft 4 kts 21°
2026-04-24 07:40 50.35088 30.90009 408 ft 1 kts
2026-04-24 07:41 50.35087 30.90009 409 ft 0 kts
2026-04-24 07:44 50.35098 30.90010 404 ft 3 kts
2026-04-24 07:44 50.35135 30.90013 411 ft 7 kts
2026-04-24 07:44 50.35188 30.90061 411 ft 11 kts 60°
2026-04-24 07:44 50.35190 30.90192 414 ft 13 kts 103°
2026-04-24 07:45 50.35109 30.90253 410 ft 16 kts 182°
2026-04-24 07:45 50.34988 30.90245 409 ft 19 kts 183°
2026-04-24 07:45 50.34843 30.90234 415 ft 23 kts 182°
2026-04-24 07:45 50.34675 30.90222 408 ft 26 kts 183°
2026-04-24 07:46 50.34487 30.90208 408 ft 28 kts 182°
2026-04-24 07:46 50.34293 30.90194 410 ft 21 kts 183°
2026-04-24 07:46 50.34137 30.90182 406 ft 24 kts 182°
2026-04-24 07:46 50.33970 30.90170 406 ft 23 kts 183°
2026-04-24 07:47 50.33801 30.90158 411 ft 26 kts 182°
2026-04-24 07:47 50.33612 30.90144 412 ft 29 kts 182°
2026-04-24 07:47 50.33418 30.90129 409 ft 22 kts 182°
2026-04-24 07:47 50.33329 30.90174 412 ft 14 kts 117°
2026-04-24 07:48 50.33320 30.90284 413 ft 9 kts 92°
2026-04-24 07:48 50.33318 30.90354 421 ft 5 kts 92°
2026-04-24 07:48 50.33316 30.90405 422 ft 4 kts 92°
2026-04-24 07:48 50.33325 30.90445 415 ft 4 kts 24°
2026-04-24 07:49 50.33355 30.90449 413 ft 4 kts
2026-04-24 07:49 50.33386 30.90451 417 ft 7 kts
2026-04-24 07:49 50.33649 30.90470 422 ft 74 kts
2026-04-24 07:49 50.34398 30.90525 416 ft 139 kts
2026-04-24 07:50 50.35465 30.90610 857 ft 159 kts
2026-04-24 07:50 50.36593 30.90714 1719 ft 165 kts
2026-04-24 07:50 50.37825 30.90806 2260 ft 193 kts
2026-04-24 07:50 50.39268 30.90924 2663 ft 218 kts
2026-04-24 07:51 50.40802 30.91053 3380 ft 228 kts
2026-04-24 07:51 50.42451 30.91173 3972 ft 242 kts
2026-04-24 07:51 50.44136 30.91287 5007 ft 241 kts
2026-04-24 07:51 50.45807 30.91395 6066 ft 240 kts 360°
2026-04-24 07:52 50.47481 30.91501 6991 ft 242 kts 359°
2026-04-24 07:52 50.49183 30.91603 7870 ft 247 kts 358°
2026-04-24 07:52 50.50831 30.90995 8734 ft 248 kts 329°
2026-04-24 07:52 50.52112 30.89158 9626 ft 254 kts 310°
2026-04-24 07:53 50.52439 30.88416 9889 ft 257 kts 304°
2026-04-24 07:53 50.52822 30.87201 10218 ft 265 kts 295°
2026-04-24 07:53 50.53222 30.84211 10468 ft 295 kts 282°
2026-04-24 07:53 50.53425 30.80874 10830 ft 315 kts 279°
2026-04-24 07:54 50.53593 30.77394 11512 ft 322 kts 279°
2026-04-24 07:54 50.53755 30.73868 12320 ft 325 kts 280°
2026-04-24 07:54 50.53922 30.70303 13162 ft 328 kts 281°
2026-04-24 07:54 50.54098 30.66707 13933 ft 332 kts 281°
2026-04-24 07:55 50.54282 30.63066 14648 ft 335 kts 282°
2026-04-24 07:55 50.54470 30.59393 15372 ft 339 kts 282°
2026-04-24 07:55 50.54663 30.55684 16087 ft 342 kts 282°
2026-04-24 07:55 50.54856 30.51985 16778 ft 346 kts 282°
2026-04-24 07:56 50.55057 30.48147 17476 ft 350 kts 283°
2026-04-24 07:56 50.55256 30.44313 18165 ft 353 kts 283°
2026-04-24 07:56 50.55457 30.40449 18762 ft 357 kts 283°
2026-04-24 07:56 50.55657 30.36547 19397 ft 359 kts 283°
2026-04-24 07:57 50.55854 30.32673 20012 ft 361 kts 284°
2026-04-24 07:57 50.56055 30.28719 20624 ft 364 kts 284°
2026-04-24 07:57 50.56255 30.24736 21232 ft 366 kts 284°
2026-04-24 07:57 50.56456 30.20726 21812 ft 369 kts 285°
2026-04-24 07:58 50.56657 30.16685 22398 ft 372 kts 285°
2026-04-24 07:58 50.56859 30.12606 22988 ft 375 kts 285°
2026-04-24 07:58 50.57061 30.08495 23501 ft 378 kts 285°
2026-04-24 07:58 50.57263 30.04350 23930 ft 381 kts 286°
2026-04-24 07:59 50.57466 30.00175 24336 ft 385 kts 286°
2026-04-24 07:59 50.57668 29.95956 24740 ft 388 kts 286°
2026-04-24 07:59 50.57871 29.91702 25153 ft 391 kts 286°
2026-04-24 07:59 50.58065 29.87569 25545 ft 394 kts 287°
2026-04-24 08:00 50.58267 29.83250 25937 ft 397 kts 287°
2026-04-24 08:00 50.58469 29.78897 26327 ft 400 kts 287°
2026-04-24 08:00 50.58671 29.74508 26716 ft 403 kts 287°
2026-04-24 08:00 50.58873 29.70093 27103 ft 406 kts 287°
2026-04-24 08:01 50.59073 29.65651 27474 ft 409 kts 287°
2026-04-24 08:01 50.59274 29.61167 27837 ft 412 kts 288°
2026-04-24 08:01 50.59475 29.56657 28187 ft 415 kts 288°
2026-04-24 08:01 50.59675 29.52110 28537 ft 417 kts 288°
2026-04-24 08:02 50.59874 29.47541 28899 ft 420 kts 288°
2026-04-24 08:02 50.60073 29.42939 29275 ft 422 kts 288°
2026-04-24 08:02 50.60268 29.38339 29767 ft 420 kts 288°
2026-04-24 08:02 50.60451 29.33829 30221 ft 420 kts 287°
2026-04-24 08:03 50.60332 29.29130 30566 ft 439 kts 277°
2026-04-24 08:03 50.59758 29.24323 30886 ft 456 kts 268°
2026-04-24 08:03 50.58691 29.19524 31224 ft 469 kts 262°
2026-04-24 08:03 50.57452 29.14757 31619 ft 470 kts 261°
2026-04-24 08:04 50.56179 29.10008 31872 ft 473 kts 260°
2026-04-24 08:04 50.54903 29.05217 31842 ft 477 kts 261°
2026-04-24 08:04 50.52393 28.95623 31838 ft 471 kts 261°
2026-04-24 08:05 50.49951 28.86146 31859 ft 467 kts 261°
2026-04-24 08:05 50.47511 28.76659 31858 ft 469 kts 261°
2026-04-24 08:06 50.45167 28.67136 31854 ft 459 kts 268°
2026-04-24 08:06 50.43645 28.57500 31851 ft 453 kts 271°
2026-04-24 08:07 50.42235 28.47924 31867 ft 454 kts 270°
2026-04-24 08:07 50.40757 28.38263 31859 ft 456 kts 270°
2026-04-24 08:08 50.39237 28.28614 31861 ft 456 kts 270°
2026-04-24 08:09 50.36935 28.14176 31866 ft 455 kts 270°
2026-04-24 08:09 50.35395 28.04561 31867 ft 455 kts 269°
2026-04-24 08:10 50.33849 27.94963 31876 ft 454 kts 269°
2026-04-24 08:10 50.32307 27.85436 31881 ft 454 kts 269°
2026-04-24 08:11 50.30721 27.75859 31886 ft 454 kts 268°
2026-04-24 08:11 50.29350 27.67927 31885 ft 454 kts 268°
2026-04-24 08:12 50.27691 27.58399 31882 ft 454 kts 268°
2026-04-24 08:12 50.26032 27.48864 31893 ft 454 kts 268°
2026-04-24 08:13 50.24372 27.39346 31895 ft 454 kts 268°
2026-04-24 08:13 50.22705 27.29839 31899 ft 454 kts 267°
2026-04-24 08:14 50.21027 27.20325 31892 ft 453 kts 267°
2026-04-24 08:14 50.19370 27.11003 31898 ft 444 kts 267°
2026-04-24 08:15 50.17605 27.01732 31898 ft 453 kts 262°
2026-04-24 08:15 50.16439 26.97111 31547 ft 458 kts 259°
2026-04-24 08:15 50.15195 26.92563 31191 ft 453 kts 258°
2026-04-24 08:15 50.13941 26.88073 30771 ft 450 kts 259°
2026-04-24 08:16 50.12705 26.83614 30369 ft 446 kts 259°
2026-04-24 08:16 50.11495 26.79188 29955 ft 442 kts 259°
2026-04-24 08:16 50.10307 26.74792 29481 ft 438 kts 259°
2026-04-24 08:16 50.09137 26.70438 29069 ft 433 kts 259°
2026-04-24 08:17 50.07983 26.66133 28640 ft 429 kts 259°
2026-04-24 08:17 50.06841 26.61875 28218 ft 425 kts 259°
2026-04-24 08:17 50.05706 26.57653 27823 ft 421 kts 259°
2026-04-24 08:17 50.04577 26.53460 27389 ft 419 kts 259°
2026-04-24 08:18 50.03453 26.49283 26988 ft 419 kts 259°
2026-04-24 08:18 50.02322 26.45093 26575 ft 419 kts 258°
2026-04-24 08:18 50.01194 26.40935 26159 ft 416 kts 258°
2026-04-24 08:18 50.00070 26.36807 25742 ft 413 kts 258°
2026-04-24 08:19 49.98928 26.32727 25416 ft 409 kts 257°
2026-04-24 08:19 49.97734 26.28724 25040 ft 407 kts 256°
2026-04-24 08:19 49.96527 26.24757 24650 ft 405 kts 255°
2026-04-24 08:19 49.95342 26.20865 24263 ft 402 kts 255°
2026-04-24 08:20 49.94156 26.16946 23867 ft 400 kts 256°
2026-04-24 08:20 49.92979 26.13037 23453 ft 399 kts 255°
2026-04-24 08:20 49.91811 26.09149 22985 ft 397 kts 255°
2026-04-24 08:20 49.90647 26.05289 22571 ft 394 kts 255°
2026-04-24 08:21 49.89486 26.01444 22170 ft 390 kts 255°
2026-04-24 08:21 49.88373 25.97762 21854 ft 385 kts 255°
2026-04-24 08:21 49.87241 25.94012 21455 ft 383 kts 255°
2026-04-24 08:21 49.86116 25.90286 21069 ft 380 kts 255°
2026-04-24 08:22 49.85000 25.86590 20679 ft 377 kts 255°
2026-04-24 08:22 49.83890 25.82921 20295 ft 375 kts 255°
2026-04-24 08:22 49.82798 25.79316 19915 ft 373 kts 255°
2026-04-24 08:22 49.81685 25.75647 19525 ft 370 kts 254°
2026-04-24 08:23 49.80590 25.72050 19149 ft 368 kts 254°
2026-04-24 08:23 49.79500 25.68477 18793 ft 365 kts 254°
2026-04-24 08:23 49.78430 25.64991 18480 ft 362 kts 254°
2026-04-24 08:23 49.77336 25.61436 18081 ft 360 kts 253°
2026-04-24 08:24 49.76278 25.57997 17672 ft 358 kts 253°
2026-04-24 08:24 49.75209 25.54529 17276 ft 356 kts 253°
2026-04-24 08:24 49.74148 25.51090 16888 ft 353 kts 253°
2026-04-24 08:24 49.73094 25.47676 16516 ft 350 kts 253°
2026-04-24 08:25 49.72048 25.44289 16145 ft 348 kts 253°
2026-04-24 08:25 49.71008 25.40926 15781 ft 346 kts 253°
2026-04-24 08:25 49.69973 25.37587 15411 ft 343 kts 252°
2026-04-24 08:25 49.68945 25.34271 15052 ft 341 kts 252°
2026-04-24 08:26 49.67922 25.30978 14698 ft 339 kts 252°
2026-04-24 08:26 49.66903 25.27702 14331 ft 337 kts 252°
2026-04-24 08:26 49.65892 25.24455 13976 ft 335 kts 252°
2026-04-24 08:26 49.64882 25.21213 13599 ft 334 kts 252°
2026-04-24 08:27 49.63879 25.17996 13202 ft 332 kts 251°
2026-04-24 08:27 49.62879 25.14799 12831 ft 329 kts 251°
2026-04-24 08:27 49.61885 25.11628 12497 ft 326 kts 251°
2026-04-24 08:27 49.60950 25.08513 12140 ft 320 kts 257°
2026-04-24 08:28 49.60474 25.05263 11796 ft 306 kts 272°
2026-04-24 08:28 49.60432 25.02016 11457 ft 301 kts 277°
2026-04-24 08:28 49.60453 24.98805 11106 ft 299 kts 277°
2026-04-24 08:28 49.60483 24.95617 10766 ft 297 kts 277°
2026-04-24 08:29 49.60511 24.92436 10435 ft 297 kts 277°
2026-04-24 08:29 49.60539 24.89292 10311 ft 289 kts 276°
2026-04-24 08:29 49.60548 24.86239 10167 ft 281 kts 276°
2026-04-24 08:29 49.60553 24.83263 10050 ft 273 kts 276°
2026-04-24 08:30 49.60558 24.80369 9870 ft 267 kts 276°
2026-04-24 08:30 49.60564 24.77518 9598 ft 264 kts 276°
2026-04-24 08:30 49.60569 24.74690 9311 ft 263 kts 276°
2026-04-24 08:30 49.60574 24.71879 9029 ft 262 kts 276°
2026-04-24 08:31 49.60577 24.69120 8751 ft 260 kts 276°
2026-04-24 08:31 49.60579 24.66339 8476 ft 258 kts 276°
2026-04-24 08:31 49.60580 24.63577 8203 ft 257 kts 276°
2026-04-24 08:31 49.60581 24.60833 7933 ft 255 kts 276°
2026-04-24 08:32 49.60580 24.58103 7675 ft 254 kts 276°
2026-04-24 08:32 49.60579 24.55387 7403 ft 253 kts 276°
2026-04-24 08:32 49.60577 24.52676 7143 ft 252 kts 276°
2026-04-24 08:32 49.60574 24.49985 6888 ft 250 kts 276°
2026-04-24 08:33 49.60572 24.47311 6621 ft 249 kts 276°
2026-04-24 08:33 49.60568 24.44656 6368 ft 247 kts 276°
2026-04-24 08:33 49.60565 24.42005 6094 ft 246 kts 275°
2026-04-24 08:33 49.60561 24.39364 5821 ft 246 kts 275°
2026-04-24 08:34 49.60555 24.36725 5547 ft 245 kts 275°
2026-04-24 08:34 49.60550 24.34111 5295 ft 242 kts 274°
2026-04-24 08:34 49.60543 24.31563 5205 ft 234 kts 274°
2026-04-24 08:34 49.60533 24.29088 5095 ft 226 kts 274°
2026-04-24 08:35 49.60740 24.26773 4974 ft 213 kts 298°
2026-04-24 08:35 49.61489 24.24912 4916 ft 206 kts 313°
2026-04-24 08:35 49.62493 24.23361 4816 ft 202 kts 317°
2026-04-24 08:35 49.63514 24.21882 4601 ft 201 kts 317°
2026-04-24 08:36 49.64520 24.20411 4417 ft 197 kts 317°
2026-04-24 08:36 49.65518 24.18995 4151 ft 192 kts 320°
2026-04-24 08:36 49.66500 24.17652 3927 ft 186 kts 317°
2026-04-24 08:36 49.67438 24.16285 3718 ft 185 kts 316°
2026-04-24 08:37 49.68358 24.14903 3492 ft 183 kts 316°
2026-04-24 08:37 49.69252 24.13555 3335 ft 177 kts 316°
2026-04-24 08:37 49.70147 24.12201 3094 ft 185 kts 316°
2026-04-24 08:37 49.71052 24.10831 2997 ft 177 kts 316°
2026-04-24 08:38 49.71906 24.09537 2973 ft 168 kts 316°
2026-04-24 08:38 49.72726 24.08298 3000 ft 157 kts 316°
2026-04-24 08:38 49.73454 24.07196 2960 ft 143 kts 315°
2026-04-24 08:38 49.74141 24.06150 2814 ft 140 kts 316°
2026-04-24 08:39 49.74828 24.05124 2587 ft 132 kts 316°
2026-04-24 08:39 49.75461 24.04165 2444 ft 127 kts 315°
2026-04-24 08:39 49.76100 24.03192 2272 ft 131 kts 316°
2026-04-24 08:39 49.76750 24.02215 2079 ft 129 kts 315°
2026-04-24 08:40 49.77369 24.01279 1908 ft 128 kts 316°
2026-04-24 08:40 49.78010 24.00310 1709 ft 129 kts 316°
2026-04-24 08:40 49.78650 23.99345 1487 ft 128 kts 316°
2026-04-24 08:40 49.79286 23.98382 1321 ft 127 kts 315°
2026-04-24 08:41 49.79930 23.97411 1124 ft 131 kts 316°
2026-04-24 08:41 49.80555 23.96468 1065 ft 113 kts 315°
2026-04-24 08:41 49.81009 23.95787 1063 ft 69 kts 316°
2026-04-24 08:41 49.81175 23.95551 1065 ft 16 kts 335°
2026-04-24 08:42 49.81240 23.95584 1066 ft 6 kts 45°
2026-04-24 08:42 49.81271 23.95633 1065 ft 6 kts 45°
2026-04-24 08:42 49.81292 23.95693 1065 ft 6 kts 71°
2026-04-24 08:42 49.81317 23.95745 1065 ft 5 kts 47°
2026-04-24 08:43 49.81336 23.95774 1066 ft 3 kts 46°
2026-04-24 08:43 49.81342 23.95784 1067 ft 0 kts 45°
2026-04-24 08:43 49.81344 23.95788 1067 ft 0 kts 45°
2026-04-24 08:43 49.81345 23.95789 1067 ft 0 kts 45°